Wind_Speed
6 6 6 7 8 8 9 9 10 10 11 11 12 12 13 14 15 15 16 16 16 17 17 18 17 16 15 15 14 13 13 12 12 11 10 9 8 7 7 6 5 4 4
6 7 7 8 9 9 10 11 11 11 12 13 13 13 14 15 16 17 18 17 18 18 19 19 18 17 17 16 15 14 14 13 12 11 10 9 8 7 7 6 5 4 3
6 7 8 8 9 10 10 11 12 12 13 14 14 15 16 17 18 18 19 19 19 19 19 19 19 18 18 17 16 15 15 14 12 11 10 9 8 7 6 5 4 4 3
6 7 8 9 10 11 11 11 12 12 13 14 15 16 17 18 19 19 19 20 20 20 20 20 20 19 19 18 17 16 15 14 13 11 11 9 8 7 6 5 4 3 3
7 8 8 9 9 10 10 11 11 11 12 13 15 16 16 17 18 18 19 20 20 22 21 21 21 20 20 20 18 17 16 14 13 12 11 10 8 7 6 5 4 4 3
7 7 7 8 8 9 9 9 10 11 12 13 14 15 16 17 17 18 18 19 20 21 21 21 21 21 21 21 20 18 17 16 14 13 12 11 9 8 7 6 5 4 3
8 7 6 7 7 8 9 9 11 12 12 13 14 15 16 17 17 18 18 19 20 20 21 21 22 22 22 21 20 19 18 16 15 14 13 12 10 8 7 6 5 4 4
6 6 6 7 7 8 9 10 11 12 12 13 14 15 16 16 17 18 18 19 19 20 21 21 22 22 22 22 21 20 19 18 16 15 14 13 11 9 8 7 6 5 5
5 5 6 7 7 8 9 10 11 11 12 13 13 14 14 15 16 17 18 18 19 19 20 21 21 21 22 22 21 21 20 19 18 17 16 15 13 11 9 8 7 6 6
5 5 6 6 6 7 8 9 10 11 12 12 13 14 14 14 15 16 17 17 18 19 19 20 21 21 22 22 21 21 21 20 19 18 17 16 14 12 10 9 8 8 7
5 5 5 5 6 8 9 10 11 11 12 12 13 14 15 15 15 15 16 16 17 18 19 19 20 21 22 22 21 21 21 21 20 18 18 18 16 14 12 11 10 9 8
5 5 5 5 6 8 9 10 11 11 12 13 13 14 14 14 15 16 16 16 16 17 18 18 19 20 21 22 22 21 21 22 21 20 19 19 18 16 15 13 12 10 10
4 4 5 5 6 8 9 10 11 11 12 13 14 14 14 15 15 15 16 16 16 16 17 18 19 20 21 22 22 22 22 23 21 21 20 20 19 18 17 16 14 13 11
3 4 4 6 7 8 10 10 11 12 13 13 14 14 14 15 15 16 16 16 16 16 17 18 18 20 20 21 21 22 22 23 22 21 21 21 20 19 18 17 17 15 14
3 4 5 6 7 8 9 10 10 11 13 14 14 15 15 15 15 16 16 16 17 17 17 17 18 19 20 21 21 22 22 22 23 22 22 22 21 20 19 19 18 17 16
3 4 5 6 7 8 9 9 10 11 12 14 14 15 15 15 15 16 17 16 16 16 16 16 17 18 18 19 20 22 22 22 22 23 23 22 22 21 21 20 19 18 18
3 4 5 5 7 8 9 9 10 11 12 14 15 15 15 15 16 16 16 16 16 16 15 15 15 16 17 17 19 20 22 23 23 23 24 24 24 23 22 21 21 20 19
3 4 5 5 6 7 8 10 11 11 13 14 15 15 15 16 16 16 16 16 16 15 15 14 14 15 15 16 17 19 21 22 22 23 24 25 25 24 23 23 22 21 20
4 4 5 5 6 7 8 9 10 11 13 14 16 16 16 16 16 17 16 16 16 15 15 14 14 13 14 15 16 18 20 21 21 22 23 24 26 25 24 24 23 22 21
4 4 5 6 7 7 8 9 10 12 13 15 16 17 17 17 17 17 16 16 16 15 14 14 13 13 13 13 15 17 19 20 21 22 22 24 25 26 25 25 24 24 23
4 5 5 6 7 8 9 10 11 12 14 15 16 17 17 17 17 17 16 16 16 15 14 13 12 12 12 12 14 15 17 19 21 22 22 23 25 26 26 26 26 25 24
4 5 5 6 7 8 9 10 11 13 14 15 17 17 18 17 17 17 17 16 16 15 14 12 11 10 10 11 12 13 15 17 19 22 23 23 23 25 26 26 27 26 26
5 5 5 6 7 8 9 10 11 13 14 15 16 17 18 18 17 17 17 16 16 15 14 12 10 9 9 9 11 12 14 16 17 19 21 22 23 24 25 26 27 27 27
5 5 6 6 7 8 9 10 12 13 14 15 16 17 18 18 17 17 17 16 16 15 14 12 10 9 8 8 10 11 13 14 16 18 20 21 22 23 25 26 27 27 28
5 5 6 6 7 8 9 10 12 13 14 15 16 17 17 17 17 17 17 16 15 15 14 12 11 9 8 8 9 10 11 13 15 17 19 21 21 22 24 25 27 27 27
5 5 6 6 7 8 9 10 12 13 14 15 15 16 17 17 17 17 17 16 16 15 14 13 11 9 7 6 7 9 10 12 14 16 18 20 20 21 23 24 26 27 28
Wind_Direction
301 306 305 301 297 294 292 292 293 290 287 283 280 279 278 277 274 274 275 275 273 272 271 270 272 273 275 277 280 284 287 291 295 299 304 307 307 305 304 305 306 304 309
298 302 304 303 301 298 296 296 297 293 290 286 283 279 278 277 277 276 275 275 273 272 269 268 269 271 272 273 276 278 281 286 290 292 295 299 301 301 299 301 299 297 301
297 301 301 300 300 301 299 299 299 296 293 290 287 282 279 278 277 277 276 275 274 272 272 269 268 270 271 272 272 273 276 279 283 284 287 290 292 294 295 297 296 286 290
297 300 299 298 299 299 298 299 299 298 296 294 291 287 283 281 279 278 276 276 274 273 272 272 268 269 269 269 270 270 270 272 276 277 280 283 284 284 285 285 286 282 274
299 300 298 301 302 301 302 303 302 301 300 298 295 292 289 285 285 282 280 278 274 273 271 271 269 269 268 268 268 268 265 265 268 271 273 275 278 278 277 274 271 268 261
299 299 299 302 306 308 309 308 305 303 302 301 299 296 292 288 287 285 282 280 277 274 271 270 269 268 268 267 265 265 262 260 262 264 266 266 269 272 269 264 261 256 251
298 298 303 310 315 314 313 310 308 307 306 304 301 298 294 293 290 287 284 281 278 274 272 270 268 267 267 266 264 261 259 257 257 258 258 259 260 262 260 255 250 244 240
300 305 312 315 315 316 316 314 313 311 309 307 305 303 299 295 292 289 286 283 281 276 272 271 267 266 265 264 262 259 256 255 254 253 252 253 252 252 253 247 242 234 226
302 304 309 314 318 320 318 317 317 317 316 315 312 309 305 300 297 293 289 286 282 277 273 271 269 266 262 261 260 257 254 253 253 249 247 247 246 245 246 241 235 227 219
300 305 313 318 324 326 325 325 325 324 322 320 317 316 312 307 303 299 293 288 284 280 277 273 269 265 262 260 257 254 253 252 251 247 243 241 240 239 238 236 231 221 216
298 306 315 325 331 330 330 331 330 328 325 323 321 319 315 311 307 303 299 293 287 282 279 275 270 264 260 257 256 252 251 250 249 245 239 237 235 235 234 232 229 219 215
301 309 316 324 332 333 333 334 334 331 329 327 323 320 317 314 310 305 301 298 292 285 280 276 271 265 260 256 254 252 249 247 244 241 238 234 233 232 230 228 224 218 213
300 309 315 328 332 333 334 335 336 335 333 331 328 325 322 318 314 309 304 299 295 289 283 278 272 266 260 255 252 251 247 245 241 237 236 233 231 229 227 225 222 218 214
293 304 315 326 330 333 335 336 337 335 333 333 332 329 325 321 316 313 307 302 297 292 286 280 274 268 261 254 251 249 246 242 237 234 233 231 228 226 223 222 220 217 215
295 302 309 320 327 330 333 336 336 335 335 336 334 331 327 323 319 316 311 305 300 296 288 282 275 270 263 255 249 247 245 240 234 230 229 227 225 223 221 219 218 217 216
294 300 304 316 324 328 331 335 336 337 339 339 337 333 330 327 324 320 316 310 305 302 294 284 277 270 264 255 249 245 241 237 231 228 226 223 223 221 219 218 217 217 216
285 291 299 314 324 327 331 336 337 339 340 341 341 337 333 331 329 326 321 316 312 308 301 289 280 274 264 255 248 243 238 235 229 226 225 223 221 219 219 218 217 217 216
277 289 301 316 325 331 336 339 339 341 343 342 343 341 337 334 333 332 328 322 317 312 305 294 285 277 266 254 248 242 237 232 228 226 224 222 221 219 218 217 216 216 214
275 292 307 318 327 334 338 340 343 343 344 344 345 344 340 336 336 335 333 328 323 316 308 298 287 278 268 255 247 242 236 230 227 226 223 221 220 219 218 217 216 215 213
274 293 304 315 326 334 337 340 343 345 346 346 346 344 341 339 339 338 337 333 330 324 315 305 293 281 268 257 248 241 237 231 227 225 221 219 219 219 217 217 215 215 215
281 296 300 312 323 330 335 340 343 344 346 346 346 345 343 341 341 340 340 338 335 330 322 313 300 289 274 261 249 243 235 229 227 224 220 220 219 217 217 218 216 215 216
282 296 300 308 319 327 334 338 341 343 345 346 346 346 346 344 343 342 340 340 338 335 329 320 308 295 279 263 250 242 236 226 223 225 223 223 220 218 217 218 216 216 217
284 297 305 314 321 327 334 338 340 343 345 346 347 347 348 346 345 344 343 342 341 340 335 328 316 303 286 266 251 242 235 228 223 223 222 222 221 219 217 217 216 215 217
281 294 306 315 320 328 334 339 342 344 345 347 347 347 347 347 346 346 345 344 344 343 340 335 326 309 292 270 256 244 235 231 224 218 218 219 219 218 217 218 216 216 217
281 292 305 311 318 327 335 339 343 344 345 346 347 348 348 348 347 347 347 347 346 346 344 341 335 319 297 276 259 246 238 232 224 220 218 217 218 218 219 219 218 217 217
283 292 302 306 315 325 333 338 340 342 343 345 347 347 348 348 349 349 349 350 349 349 348 345 341 333 310 282 262 247 238 233 226 221 219 217 218 217 216 216 217 218 217
Height
5868 5868 5867 5867 5867 5866 5866 5865 5865 5864 5864 5864 5864 5864 5864 5864 5864 5864 5864 5864 5865 5865 5866 5867 5867 5868 5868 5869 5870 5870 5871 5871 5872 5872 5872 5872 5872 5872 5872 5872 5872 5871 5871
5867 5866 5866 5866 5865 5865 5864 5864 5863 5863 5862 5862 5862 5862 5861 5862 5862 5862 5861 5862 5862 5862 5863 5864 5864 5865 5866 5867 5867 5868 5869 5869 5870 5870 5871 5871 5871 5871 5871 5871 5871 5871 5871
5866 5865 5865 5864 5864 5864 5863 5862 5861 5861 5860 5860 5859 5859 5859 5859 5859 5859 5858 5859 5859 5859 5860 5861 5861 5862 5863 5864 5865 5866 5867 5867 5868 5869 5869 5869 5870 5869 5870 5870 5870 5870 5870
5864 5864 5864 5863 5863 5862 5861 5860 5860 5859 5858 5858 5857 5857 5856 5856 5856 5855 5855 5855 5856 5856 5856 5857 5858 5859 5860 5861 5862 5863 5864 5865 5866 5867 5867 5868 5868 5868 5868 5869 5869 5869 5869
5863 5863 5862 5862 5861 5860 5860 5859 5858 5857 5856 5855 5855 5854 5853 5853 5852 5852 5852 5852 5852 5852 5853 5854 5854 5855 5856 5858 5859 5860 5861 5862 5863 5864 5865 5866 5866 5867 5867 5867 5868 5868 5868
5862 5861 5861 5860 5860 5859 5858 5857 5857 5856 5855 5853 5852 5852 5851 5850 5849 5849 5849 5848 5848 5848 5849 5850 5850 5851 5852 5854 5855 5857 5858 5859 5861 5862 5863 5864 5865 5865 5866 5866 5867 5867 5868
5860 5860 5859 5859 5858 5857 5857 5856 5855 5854 5853 5851 5850 5849 5848 5847 5846 5845 5845 5845 5844 5844 5845 5846 5846 5847 5848 5849 5851 5853 5854 5856 5858 5859 5861 5862 5863 5864 5864 5865 5866 5866 5867
5859 5859 5858 5858 5857 5856 5855 5854 5853 5852 5851 5849 5848 5846 5845 5844 5843 5842 5841 5841 5841 5841 5841 5841 5842 5843 5844 5845 5847 5849 5851 5853 5854 5856 5858 5859 5861 5862 5863 5863 5864 5865 5866
5858 5858 5857 5856 5856 5855 5854 5853 5851 5850 5849 5847 5845 5844 5842 5841 5840 5839 5838 5837 5837 5837 5837 5837 5837 5838 5839 5841 5843 5845 5846 5849 5850 5853 5855 5857 5858 5860 5861 5862 5863 5864 5865
5857 5856 5856 5855 5854 5854 5853 5851 5850 5848 5847 5845 5843 5841 5840 5838 5837 5835 5834 5834 5833 5832 5832 5832 5833 5834 5835 5836 5838 5840 5842 5844 5846 5849 5851 5853 5855 5857 5859 5860 5861 5862 5864
5856 5855 5855 5854 5853 5853 5851 5850 5848 5847 5845 5843 5841 5839 5837 5836 5834 5832 5831 5830 5829 5828 5828 5828 5828 5829 5830 5832 5833 5835 5838 5840 5842 5845 5847 5850 5852 5854 5856 5858 5860 5861 5863
5855 5854 5854 5853 5853 5851 5850 5849 5847 5845 5843 5841 5839 5837 5835 5833 5831 5829 5828 5826 5825 5824 5824 5823 5824 5824 5825 5827 5829 5831 5833 5835 5838 5841 5843 5846 5849 5851 5853 5856 5858 5859 5861
5854 5853 5853 5852 5851 5850 5849 5847 5845 5844 5842 5839 5837 5835 5832 5830 5828 5826 5824 5823 5822 5820 5820 5819 5819 5819 5820 5822 5824 5826 5828 5831 5833 5836 5839 5842 5845 5848 5850 5853 5855 5857 5860
5853 5852 5852 5851 5850 5849 5848 5846 5844 5842 5840 5838 5835 5832 5830 5828 5825 5823 5821 5819 5818 5817 5815 5815 5814 5814 5815 5817 5818 5821 5823 5826 5828 5832 5835 5838 5841 5844 5847 5850 5853 5855 5858
5851 5851 5850 5850 5849 5848 5846 5845 5843 5841 5838 5836 5833 5831 5828 5825 5823 5820 5818 5816 5814 5812 5811 5810 5810 5809 5810 5811 5813 5815 5817 5820 5823 5827 5830 5833 5837 5840 5843 5846 5850 5852 5855
5850 5849 5849 5848 5848 5846 5845 5843 5841 5839 5837 5834 5831 5829 5826 5823 5820 5817 5815 5812 5810 5808 5807 5805 5805 5805 5805 5806 5808 5810 5812 5815 5818 5822 5825 5829 5832 5836 5840 5843 5846 5849 5852
5849 5849 5848 5847 5846 5845 5843 5842 5840 5838 5835 5833 5830 5827 5824 5821 5818 5815 5811 5809 5806 5804 5802 5801 5800 5800 5800 5801 5803 5805 5807 5810 5813 5817 5820 5824 5828 5832 5836 5839 5843 5846 5849
5848 5848 5847 5846 5845 5844 5842 5840 5838 5836 5834 5831 5828 5825 5822 5818 5815 5812 5809 5806 5803 5801 5799 5797 5796 5795 5795 5796 5798 5799 5802 5805 5808 5812 5816 5819 5824 5828 5832 5836 5839 5843 5846
5847 5846 5846 5845 5844 5842 5840 5839 5837 5835 5832 5829 5826 5823 5820 5816 5813 5810 5806 5803 5800 5798 5795 5793 5792 5791 5791 5792 5793 5795 5797 5800 5803 5807 5811 5815 5819 5823 5827 5832 5836 5839 5843
5845 5845 5844 5843 5842 5841 5839 5837 5835 5833 5830 5828 5824 5821 5818 5814 5811 5807 5804 5801 5798 5795 5792 5790 5788 5788 5787 5788 5789 5790 5793 5796 5799 5803 5807 5810 5815 5819 5823 5827 5832 5836 5840
5844 5843 5842 5842 5840 5839 5838 5836 5834 5831 5829 5826 5823 5820 5816 5812 5809 5806 5802 5799 5795 5792 5789 5787 5785 5784 5784 5784 5785 5786 5788 5791 5795 5799 5802 5806 5810 5814 5819 5823 5828 5832 5836
5842 5841 5841 5840 5839 5838 5836 5834 5832 5830 5827 5825 5821 5818 5814 5811 5807 5804 5800 5797 5793 5790 5787 5785 5783 5782 5781 5781 5782 5783 5785 5788 5791 5794 5798 5802 5806 5810 5814 5819 5823 5828 5832
5840 5840 5839 5838 5837 5836 5834 5832 5831 5828 5826 5823 5820 5817 5813 5809 5806 5802 5799 5795 5792 5788 5785 5783 5781 5779 5779 5779 5779 5781 5782 5784 5787 5791 5794 5798 5801 5805 5810 5815 5819 5824 5828
5839 5838 5837 5836 5835 5834 5833 5831 5829 5827 5824 5821 5818 5815 5812 5808 5805 5801 5797 5794 5790 5787 5784 5781 5779 5778 5777 5776 5777 5778 5780 5781 5784 5787 5791 5794 5797 5801 5805 5810 5814 5819 5823
5837 5836 5836 5835 5834 5833 5831 5829 5827 5825 5823 5820 5817 5814 5811 5807 5803 5800 5796 5792 5789 5786 5783 5780 5777 5776 5775 5774 5775 5775 5777 5779 5781 5784 5787 5791 5794 5797 5801 5806 5810 5814 5819
5835 5835 5834 5833 5832 5831 5829 5828 5826 5824 5821 5819 5816 5813 5809 5806 5802 5799 5795 5792 5788 5785 5782 5779 5776 5774 5773 5772 5772 5773 5774 5776 5778 5781 5784 5787 5790 5794 5797 5801 5806 5810 5814